Location: ??????
(30.5519°N, 47.7720°E)
Time: 09:10:47
(UTC+00:00)

PSLV R/B - Pass Details

Date: 17 May 2021
Orbit: 567 x 598 km, 98.2° (Epoch: 21 June)

Event Time Altitude Azimuth Distance (km) Brightness Sun altitude
Rises 16:14:09 0° 359° (N) 2,843 7.9 -7.9°
Reaches altitude 10° 16:16:30 10° 349° (N) 1,936 7.2 -8.3°
Maximum altitude 16:20:12 31° 287° (WNW) 1,061 6.2 -9.0°
Drops below altitude 10° 16:23:52 10° 226° (SW) 1,916 6.8 -9.7°
Sets 16:26:11 0° 215° (SW) 2,809 7.5 -10.1°
